Weather observations for the past three days for
Northeast Florida Regional Airport
Imperial (Metric)
Date Time (edt) Wind (mph) Vis. (mi.) Weather Sky Cond. Temperature (ºF) Relative Humidity Wind Chill (°F) Heat Index (°F) Pressure Precipitation (in)
Air Dwpt 6 hour altimeter (in) sea level (mb) 1 hr 3 hr 6 hr
Max. Min.
16 04:56 Calm 10.00 Fair CLR 75 73 94% 73 30.03 1016.8
16 03:56 S 3 10.00 Fair CLR 75.9 73 91% 76 30.03 1016.9
16 02:56 Calm 10.00 Fair CLR 75.9 73 91% 76 30.05 1017.6
16 01:56 SW 3 10.00 Fair CLR 75.9 73 82 75.9 91% 76 30.07 1018.1
16 00:56 S 3 10.00 Fair CLR 78.1 73 85% 81 30.08 1018.6
15 23:56 Calm 10.00 A Few Clouds FEW110 78.1 73 85% 81 30.08 1018.4
15 22:56 W 5 10.00 Fair CLR 78.1 73 85% 81 30.05 1017.6
15 21:56 SW 6 10.00 Fair CLR 79 73 82% 82 30.05 1017.5
15 20:56 NW 5 10.00 Fair CLR 80.1 73 79% 84 30.06 1017.7
15 19:56 S 5 10.00 Fair CLR 82 72 91 79 72% 87 30.05 1017.5
15 18:56 W 7 10.00 Fair CLR 81 72 74% 85 30.05 1017.6
15 17:56 SW 7 10.00 Fair CLR 80.1 72 76% 84 30.04 1017.1
15 16:56 W 12 G 21 10.00 Thunderstorm in Vicinity OVC041 80.1 70 71% 83 30.06 1017.8
15 15:56 SE 17 10.00 Fair CLR 90 75 62% 100 30.03 1016.8
15 14:56 SE 16 10.00 Fair CLR 91 75 59% 102 30.05 1017.6
15 13:56 SE 14 10.00 Fair CLR 90 73.9 91 78.1 59% 99 30.08 1018.4
15 12:56 S 12 10.00 A Few Clouds FEW044 90 73.9 59% 99 30.1 1019.3
15 11:56 Calm 10.00 Mostly Cloudy BKN034 89.1 75 63% 99 30.11 1019.6
15 10:56 SW 8 10.00 Fair CLR 88 75 66% 98 30.12 1020.0
15 09:56 SW 7 10.00 Fair CLR 86 75 70% 95 30.13 1020.3
15 08:56 W 5 10.00 Fair CLR 82.9 73 72% 89 30.13 1020.2
15 07:56 SW 3 10.00 Fair CLR 78.1 73.9 78.1 73.9 87% 81 30.12 1019.9
15 06:56 SW 3 10.00 Fair CLR 75 72 90% 74 30.11 1019.5
15 05:56 SW 5 10.00 Fair CLR 75 73 94% 73 30.09 1019.0
15 04:56 SW 5 10.00 Fair CLR 75 72 90% 74 30.08 1018.5
15 03:56 SW 6 10.00 Fair CLR 75.9 73 91% 76 30.08 1018.3
15 02:56 W 5 10.00 Fair CLR 75.9 73 91% 76 30.08 1018.6
15 01:56 W 5 10.00 Fair CLR 77 73 82.9 77 88% 78 30.11 1019.5
15 00:56 W 7 10.00 Fair CLR 77 73.9 90% 78 30.12 1019.9
14 23:56 SW 5 10.00 Fair CLR 78.1 73.9 87% 81 30.13 1020.1
14 22:56 SW 7 10.00 Fair CLR 79 73.9 85% 83 30.13 1020.0
14 21:56 W 7 10.00 Fair CLR 79 75 88% 83 30.12 1020.0
14 20:56 S 3 10.00 Fair CLR 82 73.9 77% 88 30.11 1019.6
14 19:56 S 6 10.00 Fair CLR 82.9 73.9 91 79 74% 89 30.11 1019.3 0.06
14 18:56 S 6 10.00 Fair CLR 84 75.9 77% 93 30.09 1018.9
14 17:56 S 7 10.00 Fair CLR 86 75 70% 95 30.08 1018.6
14 16:56 S 12 10.00 A Few Clouds FEW100 87.1 78.1 75% 100 30.09 1018.9 0.06
14 15:56 Calm 9.00 Light Rain FEW040 SCT065 80.1 75.9 87% 85 30.11 1019.4 0.06
14 14:56 SE 12 10.00 Thunderstorm CLR 88 77 70% 100 30.13 1020.3
14 13:56 S 13 10.00 Fair CLR 89.1 77 91 80.1 68% 102 30.14 1020.6
14 12:56 SE 12 10.00 A Few Clouds FEW050 90 78.1 68% 105 30.15 1021.0
14 11:56 S 10 10.00 Partly Cloudy SCT043 SCT050 89.1 79 72% 105 30.17 1021.5
14 10:56 W 6 10.00 Fair CLR 90 75 62% 100 30.17 1021.4
14 09:56 NW 3 10.00 Fair CLR 88 75.9 68% 99 30.17 1021.5
14 08:56 W 6 10.00 Fair CLR 84 77 80% 94 30.16 1021.2
14 07:56 SW 6 10.00 Fair CLR 80.1 75.9 80.1 77 87% 85 30.17 1021.5
14 06:56 W 7 10.00 Fair CLR 77 73.9 90% 78 30.16 1021.1
14 05:56 SW 5 10.00 Fair CLR 78.1 73.9 87% 81 30.15 1020.8
14 04:56 SW 7 10.00 Fair CLR 78.1 73.9 87% 81 30.14 1020.6
14 03:56 SW 7 10.00 Fair CLR 79 73 82% 82 30.15 1020.8
14 02:56 S 7 10.00 Fair CLR 79 73 82% 82 30.16 1021.3
14 01:56 S 7 10.00 Partly Cloudy SCT110 79 73.9 88 79 85% 83 30.18 1021.9
14 00:56 Vrbl 7 G 26 10.00 Fair CLR 80.1 73.9 82% 85 30.18 1021.9
13 23:56 Calm 10.00 Fair CLR 79 73 82% 82 30.17 1021.4
13 22:56 S 3 10.00 Mostly Cloudy BKN100 81 73 77% 86 30.18 1021.7
13 21:56 S 6 10.00 Fair CLR 82.9 72 70% 88 30.16 1021.3
13 20:56 S 8 10.00 Overcast BKN095 OVC110 84.9 73 68% 92 30.17 1021.4
13 19:56 S 9 10.00 Fair CLR 88 75.9 93 86 68% 99 30.16 1021.1
13 18:56 SE 10 10.00 Mostly Cloudy BKN095 87.1 77 72% 99 30.15 1020.9
13 17:56 S 9 10.00 Fair CLR 89.1 78.1 70% 103 30.14 1020.4
13 16:56 SE 15 10.00 A Few Clouds FEW100 89.1 75 63% 99 30.15 1020.7
13 15:56 E 8 10.00 A Few Clouds FEW100 91.9 71.1 51% 99 30.15 1020.7
13 14:56 S 10 10.00 Partly Cloudy SCT100 89.1 72 57% 96 30.16 1021.3
13 13:56 S 12 10.00 Fair CLR 88 73.9 91 80.1 63% 97 30.18 1022.0
13 12:56 SE 10 10.00 Mostly Cloudy BKN065 BKN095 88 75.9 68% 99 30.2 1022.4
13 11:56 SE 8 10.00 Partly Cloudy FEW047 SCT060 88 75.9 68% 99 30.2 1022.6
13 10:56 E 7 10.00 A Few Clouds FEW085 90 77 66% 103 30.19 1022.2
13 09:56 W 3 10.00 Fair CLR 89.1 73 59% 97 30.18 1021.8
13 08:56 Vrbl 5 10.00 Fair CLR 84.9 75 72% 93 30.17 1021.6
13 07:56 W 7 10.00 Fair CLR 80.1 75 80.1 78.1 85% 85 30.17 1021.5
13 06:56 W 6 10.00 Fair CLR 78.1 73.9 87% 81 30.15 1020.8
13 05:56 Calm 10.00 Fair CLR 78.1 73 85% 81 30.13 1020.1
Date Time (edt) Wind (mph) Vis. (mi.) Weather Sky Cond. Air Dwpt Max. Min. Relative Humidity Wind Chill (°F) Heat Index (°F) altimeter (in) sea level (mb) 1 hr 3 hr 6 hr
6 hour
Temperature (ºF) Pressure Precipitation (in)